Weather History for KLAA - March, 2012

Change the Weather History Date:

Friday, March 9, 2012

  Actual Average Record
Temperature  
Mean Temperature 37 °F 40 °F  
Max Temperature 60 °F 56 °F 82 °F (1972)
Min Temperature 13 °F 24 °F -2 °F (1924)
Degree Days  
Heating Degree Days 28 25  
Month to date heating degree days 212 237  
Since 1 July heating degree days 4390 4548  
Cooling Degree Days 0 0  
Month to date cooling degree days 0 0  
Year to date cooling degree days 0 0  
Moisture  
Dew Point 8 °F    
Average Humidity 48    
Maximum Humidity 84    
Minimum Humidity 11    
Precipitation  
Precipitation 0.00 in 0.02 in 0.68 in (1975)
Month to date precipitation 0.12 0.23  
Year to date precipitation 0.32 0.90  
Snow  
Snow 0.00 in - - ()
Month to date snowfall 0.0  
Snow Depth 0.00 in    
Sea Level Pressure  
Sea Level Pressure 30.44 in    
Wind  
Wind Speed 8 mph (SSW)    
Max Wind Speed 18 mph    
Max Gust Speed 23 mph    
Visibility 10 miles    
Events      
T = Trace of Precipitation, MM = Missing Value Source: NWS Daily Summary

Daily Weather History Graph

Daily Weather History Graph

Search for Another Location

Airport or City:

Trip Planner

Search our weather history database for the weather conditions in past years. The results will help you decide how hot, cold, wet, or windy it might be!

Date:

Astronomy

Mar. 09, 2012 Rise Set
Actual Time 6:10 AM MST 5:52 PM MST
Civil Twilight 5:43 AM MST 6:18 PM MST
Nautical Twilight 5:13 AM MST 6:49 PM MST
Astronomical Twilight 4:42 AM MST 7:20 PM MST
Moon 7:52 PM MST (3/9) 6:32 AM MST (3/9)
Length of Visible Light 12h 35m
Length of Day
11h 42m
Full, 97% of the Moon is Illuminated
Mar 9
Full
Mar 14
Last Quarter
Mar 22
New
Mar 30
First Quarter
Apr 6
Full

Hourly Weather History & Observations

Time (MST) Temp. Windchill Dew Point Humidity Pressure Visibility Wind Dir Wind Speed Gust Speed Precip Events Conditions
12:53 AM 17.1 °F 11.7 °F 9.0 °F 71% 30.58 in 10.0 mi SW 3.5 mph - N/A   Clear
1:53 AM 19.9 °F - 10.0 °F 65% 30.57 in 10.0 mi Calm Calm - N/A   Clear
2:53 AM 18.0 °F - 9.0 °F 68% 30.56 in 10.0 mi Calm Calm - N/A   Clear
3:53 AM 16.0 °F 7.4 °F 9.0 °F 74% 30.57 in 10.0 mi WNW 5.8 mph - N/A   Clear
4:53 AM 15.1 °F 4.2 °F 10.0 °F 80% 30.58 in 10.0 mi SW 8.1 mph - N/A   Clear
5:53 AM 15.1 °F - 10.0 °F 80% 30.59 in 10.0 mi Calm Calm - N/A   Clear
6:53 AM 19.9 °F 11.1 °F 15.1 °F 81% 30.60 in 10.0 mi SW 6.9 mph - N/A   Clear
7:53 AM 32.0 °F 24.2 °F 19.0 °F 59% 30.59 in 10.0 mi WSW 9.2 mph - N/A   Clear
8:53 AM 39.9 °F 33.9 °F 19.9 °F 45% 30.58 in 10.0 mi SW 9.2 mph - N/A   Clear
9:53 AM 45.0 °F 41.2 °F 19.9 °F 37% 30.55 in 10.0 mi WNW 6.9 mph - N/A   Clear
10:53 AM 52.0 °F - 9.0 °F 18% 30.51 in 10.0 mi South 5.8 mph 16.1 mph N/A   Clear
11:53 AM 54.0 °F - 5.0 °F 14% 30.48 in 10.0 mi Variable 3.5 mph 16.1 mph N/A   Clear
12:53 PM 55.9 °F - 3.0 °F 12% 30.43 in 10.0 mi SSW 10.4 mph - N/A   Clear
1:53 PM 59.0 °F - 5.0 °F 12% 30.38 in 10.0 mi South 11.5 mph - N/A   Clear
2:53 PM 60.1 °F - 8.1 °F 13% 30.35 in 10.0 mi Variable 5.8 mph - N/A   Clear
3:53 PM 59.0 °F - 6.1 °F 12% 30.33 in 10.0 mi SSE 8.1 mph - N/A   Clear
4:53 PM 57.0 °F - 7.0 °F 14% 30.32 in 10.0 mi SSE 11.5 mph - N/A   Clear
5:53 PM 50.0 °F - 6.1 °F 17% 30.34 in 10.0 mi SSE 10.4 mph - N/A   Clear
6:50 PM 46.4 °F 40.1 °F 3.2 °F 17% 30.29 in 10.0 mi South 15.0 mph - N/A   Clear
6:53 PM 46.9 °F - 3.0 °F 16% 30.33 in 10.0 mi South 13.8 mph - N/A   Clear
7:53 PM 42.1 °F 34.5 °F 3.9 °F 21% 30.31 in 10.0 mi South 15.0 mph - N/A   Clear
8:53 PM 39.9 °F 31.4 °F 1.9 °F 20% 30.29 in 10.0 mi South 16.1 mph - N/A   Clear
9:53 PM 39.9 °F 32.5 °F 1.9 °F 20% 30.27 in 10.0 mi South 12.7 mph - N/A   Clear
10:53 PM 39.9 °F 33.4 °F 3.0 °F 21% 30.25 in 10.0 mi South 10.4 mph - N/A   Clear
11:53 PM 36.0 °F 33.3 °F 3.9 °F 26% 30.24 in 10.0 mi NNW 3.5 mph - N/A   Clear